Погода в Сингбури

Таиланд     14°53′21″N   100°24′01″E
темп.,
°C
ветер,
м/с
пор.,
м/с
влажн.,
%
обл.,
%
осадки,
мм/ч
давл.,
гПа
погр.,
м
11 апреля, вс
вс1101:00+29зюз356841 0.4 1010239
04:00+28юз2475100 0.1 1009202
07:00+28ю1174100 0.1 1012178
10:00+33вюв0251100 0.1 10131170
13:00+36вюв3339100 0.4 10112396
16:00+35ю1140100 0.3 10081381
19:00+34з114395 0.3 100927
22:00+32ю3550100 0.0 1012153
12 апреля, пн
пн1201:00+29ююз5868100 0.0 1011488
04:00+27ю3773100 0.1 1010405
07:00+27ююв357198 0.1 1012276
10:00+33ю335199 0.0 10141099
13:00+36ююв3239100 0.3 10102476
16:00+35ююв2241100 0.6 10081446
19:00+33ююз364964 0.6 1009165
22:00+30ююз596188 0.7 1012402
13 апреля, вт
вт1301:00+28ююз4871100 0.8 1011394
04:00+28ююз3874100 0.0 1009373
07:00+28ю2574100 0.0 1011315
10:00+32ююз3451100 0.0 1012877
13:00+36юз3337100 0.0 10092035
16:00+37ююз2332100 0.1 10062607
19:00+34ю584348 0.1 1008543
22:00+31ююз695857 0.1 1010729
14 апреля, ср
ср1401:00+30ююз4965100 0.1 1010565
04:00+29ю3769100 0.0 1009506
07:00+29ю476974 0.0 1010466
10:00+34ююз444725 0.0 10111294
13:00+38ююз333593 0.2 10082715
16:00+34ююз5546100 0.8 1006784
19:00+31ю485456 1.3 1006503
22:00+28ююз4970100 5.1 1010458
15 апреля, чт
чт1501:00+28ююв3571100 5.2 1009369
04:00+27ююв367599 0.4 1009281
07:00+27ю3574100 0.4 1009336
10:00+31ююз445690 0.0 1011854
13:00+35юз334264 0.0 10081822
16:00+37ююз333582 0.0 10052394
19:00+32з695199 0.2 1006421
22:00+26юз3569100 4.3 1010303